Regional Weather Roundup
Issued by NWS Cleveland, OH

Home | Current Version | Previous Version | Text Only | Print | Product List | Glossary Off
Versions: 1 2 3 4 5 6 7 8 9 10 11 12 13 14 15 16 17 18 19 20 21 22 23 24 25 26 27 28 29 30 31 32 33 34 35 36 37 38 39 40 41 42 43 44 45 46 47 48 49 50

879
ASUS41 KCLE 260502
RWRCLE
OHIO REGIONAL WEATHER ROUNDUP
NATIONAL WEATHER SERVICE CLEVELAND, OH
100 AM EDT TUE JUL 26 2016

NOTE: "FAIR" INDICATES FEW OR NO CLOUDS BELOW 12,000 FEET WITH NO
SIGNIFICANT WEATHER AND/OR OBSTRUCTIONS TO VISIBILITY.

OHZ001>008-015>018-024>027-034-035-043-044-260600-
   NORTHWEST OHIO

CITY           SKY/WX    TMP DP  RH WIND       PRES   REMARKS
DEFIANCE       CLOUDY    73  64  73 CALM      30.01R
FINDLAY        CLOUDY    72  65  78 W5        30.00R
TOLEDO EXPRESS CLOUDY    73  67  81 NW7       29.99S
TOLEDO EXEC    PTCLDY    74  68  81 NW8       30.00R
LIMA           CLOUDY    71  67  87 NW6       30.02R
$$

OHZ009>014-019>023-028>033-038-089-260600-
   NORTHEAST OHIO

CITY           SKY/WX    TMP DP  RH WIND       PRES   REMARKS
CLE-HOPKINS    CLOUDY    76  68  76 SW5       29.99R
CLE-LAKEFRONT  PTCLDY    79  73  82 W8        29.95S
CUY CO. ARPT   NOT AVBL
LORAIN-ELYRIA  PTCLDY    71  67  87 CALM      29.99R
ASHTABULA      PTCLDY    68  67  96 CALM      29.97R
AKRON-CANTON   PTCLDY    73  67  81 W5        30.00R
WOOSTER        MOCLDY    70  66  87 CALM      30.01R
MANSFIELD      CLOUDY    76  68  76 W5        30.02R
YOUNGSTOWN     MOCLDY    69  66  90 CALM      29.98S
$$

OHZ042-051>053-060>062-070>072-077>081-260600-
  SOUTHWEST OHIO

CITY           SKY/WX    TMP DP  RH WIND       PRES   REMARKS
CINC-COVINGTON CLOUDY    77  75  93 SW3       30.01S
CINC-LUNKEN    CLOUDY    76  76 100 CALM      30.00R
HAMILTON       CLOUDY    75  72  90 CALM      30.01R
DAYTON         CLOUDY    76  70  82 N7        30.02S
WRIGHT-PAT AFB CLOUDY    79  71  75 NW6       30.00S
DAYTON GENERAL CLOUDY    79  70  74 N7        30.00S
WILMINGTON     CLOUDY    75  73  93 CALM      30.01S
$$

OHZ036-037-039>041-045>050-054>059-063>069-073>076-082>088-260600-
  CENTRAL AND SOUTHEAST OHIO

CITY           SKY/WX    TMP DP  RH WIND       PRES   REMARKS
COLUMBUS       MOCLDY    78  69  73 CALM      29.98S
OSU AIRPORT    CLOUDY    77  70  79 NW6       29.99S
BOLTON FIELD   PTCLDY    76  70  83 CALM      30.00F
RICKENBACK AFB PTCLDY    74  72  93 S3        29.99S
NEWARK         PTCLDY    72  69  90 CALM      29.99S
MARION         CLOUDY    74  69  85 W5        30.01S
LANCASTER      CLOUDY    72  70  93 CALM      30.00S
ZANESVILLE     PTCLDY    75  69  81 CALM      29.99S
NEW PHILLY     CLEAR     75  66  73 CALM      29.99S
$$




USA.gov is the U.S. government's official web portal to all federal, state and local government web resources and services.